Weather History for KMCB - April, 2014

Change the Weather History Date:

Thursday, April 17, 2014

  Actual Average Record
Temperature  
Mean Temperature 54 °F -  
Max Temperature 64 °F 78 °F 89 °F (2006)
Min Temperature 43 °F 53 °F 38 °F (1949)
Degree Days  
Heating Degree Days 12    
Growing Degree Days 4 (Base 50)    
Moisture  
Dew Point 51 °F    
Average Humidity 77    
Maximum Humidity 93    
Minimum Humidity 63    
Precipitation  
Precipitation 0.00 in - - ()
Sea Level Pressure  
Sea Level Pressure 30.17 in    
Wind  
Wind Speed 3 mph (East)    
Max Wind Speed 9 mph    
Max Gust Speed -    
Visibility 10 miles    
Events      
Averages and records for this station are not official NWS values.
T = Trace of Precipitation, MM = Missing Value Source: NWS Daily Summary

Daily Weather History Graph

Daily Weather History Graph

Search for Another Location

Airport or City:

Trip Planner

Search our weather history database for the weather conditions in past years. The results will help you decide how hot, cold, wet, or windy it might be!

Date:

Astronomy

Apr. 17, 2014 Rise Set
Actual Time 6:31 AM CDT 7:31 PM CDT
Civil Twilight 6:06 AM CDT 7:56 PM CDT
Nautical Twilight 5:37 AM CDT 8:26 PM CDT
Astronomical Twilight 5:06 AM CDT 8:56 PM CDT
Moon 10:09 PM CDT (4/17) 8:10 AM CDT (4/17)
Length of Visible Light 13h 50m
Length of Day
13h 00m
Waning Gibbous, 93% of the Moon is Illuminated
Apr 17
Waning Gibbous
Apr 22
Last Quarter
Apr 29
New
May 6
First Quarter
May 14
Full

Hourly Weather History & Observations

Time (CDT) Temp. Dew Point Humidity Pressure Visibility Wind Dir Wind Speed Gust Speed Precip Events Conditions
12:53 AM 45.0 °F 41.0 °F 86% 30.16 in 10.0 mi Calm Calm - N/A   Clear
1:53 AM 43.0 °F 39.9 °F 89% 30.16 in 10.0 mi Calm Calm - N/A   Clear
2:53 AM 43.0 °F 41.0 °F 93% 30.14 in 10.0 mi Calm Calm - N/A   Clear
3:53 AM 44.1 °F 41.0 °F 89% 30.15 in 10.0 mi Calm Calm - N/A   Clear
4:53 AM 46.9 °F 43.0 °F 86% 30.16 in 10.0 mi North 4.6 mph - N/A   Overcast
5:53 AM 48.0 °F 44.1 °F 86% 30.17 in 10.0 mi NE 3.5 mph - N/A   Overcast
6:53 AM 48.9 °F 44.1 °F 83% 30.19 in 10.0 mi NE 3.5 mph - N/A   Overcast
7:53 AM 50.0 °F 45.0 °F 83% 30.21 in 10.0 mi Variable 3.5 mph - N/A   Overcast
8:53 AM 53.1 °F 46.0 °F 77% 30.21 in 10.0 mi Variable 6.9 mph - N/A   Overcast
9:53 AM 57.9 °F 46.9 °F 67% 30.20 in 10.0 mi ENE 6.9 mph - N/A   Clear
10:18 AM 60.1 °F 48.9 °F 67% 30.21 in 10.0 mi Variable 5.8 mph - N/A   Mostly Cloudy
10:50 AM 62.6 °F 50.0 °F 63% 30.22 in 10.0 mi ESE 5.8 mph - N/A   Overcast
12:45 PM 64.0 °F 53.1 °F 67% 30.20 in 10.0 mi ESE 9.2 mph - N/A   Mostly Cloudy
12:53 PM 64.0 °F 53.1 °F 67% 30.20 in 10.0 mi ESE 8.1 mph - N/A   Overcast
1:53 PM 64.0 °F 54.0 °F 70% 30.19 in 10.0 mi SE 6.9 mph - N/A   Overcast
2:48 PM 64.4 °F 55.4 °F 73% 30.17 in 10.0 mi ENE 5.8 mph - N/A   Scattered Clouds
2:53 PM 64.0 °F 54.0 °F 70% 30.17 in 10.0 mi East 8.1 mph - N/A   Scattered Clouds
3:51 PM 64.4 °F 55.4 °F 73% 30.15 in 10.0 mi East 4.6 mph - N/A   Overcast
3:53 PM 64.0 °F 55.0 °F 73% 30.15 in 10.0 mi East 5.8 mph - N/A   Overcast
4:25 PM 64.0 °F 55.0 °F 73% 30.16 in 10.0 mi East 3.5 mph - N/A   Mostly Cloudy
4:41 PM 64.9 °F 55.0 °F 70% 30.16 in 10.0 mi East 5.8 mph - N/A   Overcast
4:53 PM 64.0 °F 55.9 °F 75% 30.16 in 10.0 mi ESE 6.9 mph - N/A   Overcast
5:32 PM 64.0 °F 55.0 °F 73% 30.14 in 10.0 mi ENE 5.8 mph - N/A   Overcast
5:53 PM 64.0 °F 55.9 °F 75% 30.15 in 10.0 mi Calm Calm - N/A   Overcast
6:03 PM 63.0 °F 55.0 °F 75% 30.16 in 10.0 mi ESE 4.6 mph - N/A   Overcast
6:53 PM 63.0 °F 55.0 °F 75% 30.16 in 10.0 mi North - - N/A   Overcast
7:53 PM 62.1 °F 55.0 °F 78% 30.15 in 10.0 mi East 4.6 mph - N/A   Mostly Cloudy
8:53 PM 61.0 °F 55.0 °F 81% 30.15 in 10.0 mi Variable 3.5 mph - N/A   Overcast
9:53 PM 60.1 °F 54.0 °F 80% 30.15 in 10.0 mi ENE 4.6 mph - N/A   Partly Cloudy
10:53 PM 60.1 °F 54.0 °F 80% 30.15 in 10.0 mi NE 3.5 mph - N/A   Mostly Cloudy
11:53 PM 60.1 °F 53.1 °F 78% 30.14 in 10.0 mi East 4.6 mph - N/A   Mostly Cloudy